Molniya-3

operational
NORAD ID: 23642 Int'l Des: 1995-042 Owner: VKS/GPKS Country: RU
MEOELLIPTICALHEO_ELLIPTICALSEMI_SYNCMOLNIYA

关于 Molniya-3

正在加载描述...

实时位置

正在加载3D地球...

即将过境

高度历史

Altitude vs Time

uPlot chart will show altitude changes over time

两行轨道根数

1 23642U 95042A 26065.02489216 -.00001167 00000-0 00000-0 0 9994
2 23642 64.9205 279.1678 6744379 270.6669 18.7614 2.01955365224439
Epoch: Mar 6, 2026 • Age: 210 hours

当前状态

高度 32129.8 km
速度 2.37 km/s
星下点 56.85°N, 36.65°W
发射日期 Aug 9, 1995
运行时间 30.5 years
类型 other

技术详情

分类 Payload
质量 1750.00 kg
干质量 1700.00 kg
总质量 1750.00 kg
长度 3.60 m
直径 1.60 m
跨度 8.10 m
形状 Cyl + 6 Pan
制造商 NPOPMR
平台类型 Molniya-3
阶段状态 In Orbit
所有者/国家 VKS/GPKS/RU

大型星座

Loading constellations...